Weather History for Aurora, OR

Change the Weather History Date:

Sunday, September 30, 2012

  Actual Average Record
Temperature  
Mean Temperature 60 °F -  
Max Temperature 76 °F - 87 °F (2001)
Min Temperature 43 °F - 43 °F (2002)
Degree Days  
Heating Degree Days 5    
Month to date heating degree days 77  
Since 1 July heating degree days 117  
Cooling Degree Days 0    
Month to date cooling degree days 43  
Year to date cooling degree days 294  
Growing Degree Days 10 (Base 50)    
Moisture  
Dew Point 42 °F    
Average Humidity 62    
Maximum Humidity 92    
Minimum Humidity 31    
Precipitation  
Precipitation 0.00 in - 1.99 in (2005)
Month to date precipitation 0.12  
Year to date precipitation 29.97  
Sea Level Pressure  
Sea Level Pressure 30.31 in    
Wind  
Wind Speed 4 mph (NNE)    
Max Wind Speed 14 mph    
Max Gust Speed 18 mph    
Visibility 10 miles    
Events      
T = Trace of Precipitation, MM = Missing Value Source: NWS Daily Summary

Daily Weather History Graph

Daily Weather History Graph

Search for Another Location

Airport:

Trip Planner

Search our weather history database for the weather conditions in past years. The results will help you decide how hot, cold, wet, or windy it might be!

Date:

Astronomy

Sep. 30, 2012 Rise Set
Actual Time 7:08 AM PDT 6:52 PM PDT
Civil Twilight 6:39 AM PDT 7:21 PM PDT
Nautical Twilight 6:05 AM PDT 7:55 PM PDT
Astronomical Twilight 5:30 AM PDT 8:30 PM PDT
Moon 6:53 PM PDT (9/30) 7:49 AM PDT (9/30)
Length of Visible Light 12h 42m
Length of Day
11h 43m
Full, 100% of the Moon is Illuminated
Sep 30
Full
Oct 8
Last Quarter
Oct 15
New
Oct 21
First Quarter
Oct 29
Full

Hourly Weather History & Observations

Time (PDT) Temp. Dew Point Humidity Pressure Visibility Wind Dir Wind Speed Gust Speed Precip Events Conditions
12:53 AM 51.1 °F 41.0 °F 68% 30.27 in 10.0 mi NNE 4.6 mph - N/A   Clear
1:53 AM 51.1 °F 39.9 °F 66% 30.29 in 10.0 mi North 6.9 mph - N/A   Clear
2:53 AM 48.9 °F 39.9 °F 71% 30.30 in 10.0 mi Calm Calm - N/A   Clear
3:53 AM 48.0 °F 41.0 °F 77% 30.31 in 10.0 mi Calm Calm - N/A   Clear
4:53 AM 46.0 °F 39.9 °F 79% 30.30 in 10.0 mi Calm Calm - N/A   Clear
5:53 AM 45.0 °F 41.0 °F 86% 30.31 in 10.0 mi Calm Calm - N/A   Clear
7:53 AM 45.0 °F 43.0 °F 93% 30.35 in 10.0 mi Calm Calm - N/A   Clear
8:53 AM 52.0 °F 45.0 °F 77% 30.36 in 10.0 mi Calm Calm - N/A   Clear
9:53 AM 55.9 °F 45.0 °F 67% 30.36 in 10.0 mi ENE 3.5 mph - N/A   Clear
10:53 AM 62.1 °F 46.0 °F 56% 30.36 in 10.0 mi Variable 5.8 mph - N/A   Clear
11:53 AM 64.0 °F 46.9 °F 54% 30.35 in 10.0 mi Variable 3.5 mph - N/A   Clear
12:53 PM 69.1 °F 43.0 °F 39% 30.34 in 10.0 mi North 10.4 mph 18.4 mph N/A   Clear
1:53 PM 71.1 °F 42.1 °F 35% 30.31 in 10.0 mi NNW 6.9 mph - N/A   Clear
2:53 PM 73.9 °F 41.0 °F 30% 30.30 in 10.0 mi North 9.2 mph 16.1 mph N/A   Clear
3:53 PM 73.9 °F 41.0 °F 30% 30.28 in 10.0 mi NNE 10.4 mph - N/A   Clear
4:53 PM 75.0 °F 42.1 °F 31% 30.28 in 10.0 mi NNE 9.2 mph - N/A   Clear
5:53 PM 73.0 °F 44.1 °F 35% 30.27 in 10.0 mi NE 8.1 mph - N/A   Clear
6:53 PM 68.0 °F 42.1 °F 39% 30.28 in 10.0 mi NNE 3.5 mph - N/A   Clear
7:53 PM 63.0 °F 41.0 °F 45% 30.28 in 10.0 mi NNE 3.5 mph - N/A   Clear
8:53 PM 60.1 °F 39.0 °F 46% 30.28 in 10.0 mi North 6.9 mph - N/A   Clear
10:53 PM 60.1 °F 39.9 °F 47% 30.28 in 10.0 mi NNE 5.8 mph - N/A   Clear
11:53 PM 57.0 °F 39.9 °F 53% 30.27 in 10.0 mi NE 4.6 mph - N/A   Clear